Location: *
(40.7873°S, 98.7174°E)
Time: 00:10:57
(UTC+00:00)

ISS - Visible Passes

Search period start: 13 August 2022 00:00
Search period end: 23 August 2022 00:00
Orbit: 412 x 420 km, 51.6° (Epoch: 12 August)

Date Brightness Start Highest point End Pass type
(mag) Time Alt. Az. Time Alt. Az. Time Alt. Az.
15 Aug -1.0 12:55:14 10° NNW 12:55:40 13° NNW 12:55:40 13° NNW visible
16 Aug -2.4 12:07:12 10° N 12:09:45 24° NE 12:09:45 24° NE visible
17 Aug -1.7 11:19:44 10° NNE 11:21:37 14° NE 11:23:32 10° E visible
17 Aug -2.1 12:54:37 10° WNW 12:56:39 33° WNW 12:56:39 33° WNW visible
18 Aug -3.8 12:06:01 10° NW 12:09:24 72° NE 12:10:30 39° ESE visible
19 Aug -3.0 11:17:41 10° NNW 11:20:52 39° NE 11:24:05 10° ESE visible
19 Aug -1.9 12:54:36 10° W 12:57:09 28° SW 12:57:09 28° SW visible
20 Aug -2.8 12:05:40 10° WNW 12:08:56 44° SSW 12:10:47 22° SSE visible
21 Aug -3.5 11:16:53 10° WNW 11:20:15 73° SW 11:23:41 10° SE visible
21 Aug -1.4 12:55:00 10° WSW 12:57:15 18° SSW 12:57:15 18° SSW visible
22 Aug -1.8 12:05:50 10° WSW 12:08:37 23° SSW 12:10:43 14° SSE visible
